SCP
0 0 0 0 0 0 0 0 0 0 0 0 0 0 0 0 0 -0 0 0 0 0 0 0 0 1 1 1 1 1 1 1 1 1 1 1 1 1 1 1 1 1 1 1 0 0 0 0 0
0 0 0 0 0 0 0 0 0 0 0 0 0 0 0 0 0 0 0 0 0 0 0 0 0 1 1 1 1 1 1 1 1 1 1 1 1 1 1 1 1 1 1 1 0 0 0 0 0
0 0 0 0 0 0 0 0 0 0 0 0 0 0 0 0 0 0 0 0 0 0 0 0 0 1 1 1 1 1 1 1 1 1 1 1 1 1 1 1 1 1 1 1 0 0 0 0 0
0 0 0 0 0 0 0 0 0 0 0 0 0 0 0 0 0 0 0 0 0 0 0 0 0 1 1 1 1 1 1 1 1 1 1 1 1 1 1 1 1 1 1 1 0 0 0 0 0
0 0 0 0 0 0 0 0 0 0 0 0 0 0 0 0 0 0 0 0 0 0 0 0 0 1 1 1 1 1 1 1 1 1 1 1 1 1 1 1 1 1 1 1 0 0 0 0 0
0 0 0 0 0 0 0 0 0 0 0 0 0 0 0 0 0 0 0 0 0 0 0 0 0 0 1 1 1 1 1 1 1 1 1 1 1 1 1 1 1 1 1 1 0 0 0 0 0
0 0 0 0 0 0 0 0 0 0 0 0 0 0 0 0 0 0 0 0 0 0 0 0 0 0 0 0 1 1 1 1 1 1 1 1 1 1 1 1 1 1 1 0 0 0 0 0 0
0 0 0 0 0 0 0 0 0 0 0 0 0 0 0 0 0 0 0 0 0 0 0 0 0 0 0 0 0 0 1 1 1 1 1 1 1 1 1 1 1 1 1 0 0 0 0 0 0
0 0 0 0 0 0 0 0 0 0 0 0 0 0 0 0 0 0 0 0 0 0 0 0 0 0 0 0 0 0 0 1 1 1 1 0 0 0 0 0 1 1 1 0 0 0 0 0 0
0 0 0 0 0 0 0 0 0 0 0 0 0 0 0 0 0 0 0 0 0 0 0 0 0 0 0 0 0 0 0 0 0 0 0 0 0 0 0 0 0 0 0 0 0 0 0 0 0
0 0 0 0 0 0 0 0 0 0 0 0 0 0 0 0 0 0 0 0 0 0 0 0 0 0 0 0 0 0 0 0 0 0 0 0 0 0 0 0 0 0 0 0 0 0 0 0 0
0 0 0 0 0 0 0 0 0 0 0 0 0 0 0 0 0 0 0 0 0 0 0 0 0 0 0 0 0 0 0 0 0 0 0 0 0 0 0 0 0 0 0 0 0 0 0 0 0
0 0 0 0 0 0 0 0 0 0 0 0 0 0 0 0 0 0 0 0 0 0 0 0 0 0 0 0 0 0 0 0 0 0 0 0 0 0 0 0 0 0 0 0 0 0 0 0 0
0 0 0 0 0 0 0 0 0 0 0 0 0 -0 0 0 0 0 0 0 0 0 0 0 0 0 0 0 0 0 0 0 0 0 0 0 0 0 0 0 0 0 0 0 0 0 0 0 0
0 0 0 0 0 0 0 0 0 0 0 0 0 0 0 0 0 0 0 0 0 0 0 0 0 0 0 0 0 0 0 0 0 0 0 0 0 0 0 0 0 0 0 0 0 0 0 0 0
0 0 0 0 0 0 0 0 0 0 0 0 0 0 0 0 0 0 0 0 0 0 0 0 0 0 0 0 0 0 0 0 0 0 0 0 0 0 0 0 0 0 0 0 0 0 0 0 0
0 0 0 0 0 0 0 0 0 0 0 0 0 0 0 0 0 0 0 0 0 0 0 0 0 0 0 0 0 0 0 0 0 0 0 0 0 0 0 0 0 0 0 0 0 0 0 0 0
0 0 0 0 0 0 0 0 0 0 0 0 0 0 0 0 0 0 0 0 0 0 0 0 0 0 0 0 0 0 0 0 0 0 0 0 0 0 0 0 0 0 0 0 0 0 0 0 0
0 0 0 0 0 0 0 0 0 0 0 0 0 0 0 0 0 0 0 0 0 0 0 0 0 0 0 0 0 0 0 0 0 0 0 0 0 0 0 0 0 0 0 0 0 0 0 0 0
0 0 0 0 0 0 0 0 0 0 0 0 0 0 0 0 0 0 0 0 0 0 0 0 0 0 0 0 0 0 0 0 0 0 0 0 0 0 0 0 0 0 0 0 0 0 0 0 0
0 0 0 0 0 0 0 0 0 0 0 0 0 0 0 0 0 0 0 0 0 0 0 0 0 0 0 0 0 0 0 0 0 0 0 0 0 0 0 0 0 0 0 0 0 0 0 0 0
0 0 0 0 0 0 0 0 0 0 0 0 0 0 0 0 0 0 0 0 0 0 0 0 0 0 0 0 0 0 0 0 0 0 0 0 0 0 0 0 0 0 0 0 0 0 0 0 0
0 0 0 0 0 0 0 0 0 0 0 0 0 0 0 0 0 0 0 0 0 0 0 0 0 0 0 0 0 0 0 0 0 0 0 0 0 0 0 0 0 0 0 0 0 0 0 0 0
0 0 0 0 0 0 0 0 0 -0 -0 -0 0 0 0 0 0 0 0 0 0 0 0 0 0 0 0 0 0 0 0 0 0 0 0 0 0 0 0 0 0 0 0 0 0 0 0 0 0
0 0 0 0 0 0 0 0 0 -0 -0 -0 0 0 0 0 0 0 0 0 0 0 0 0 0 0 0 0 0 0 0 0 0 0 0 0 0 0 0 0 0 0 0 0 0 0 0 0 0
0 0 0 0 0 0 0 0 -0 -0 -0 -0 -0 0 0 0 0 0 0 0 0 0 0 0 0 0 0 0 0 0 0 0 0 0 0 0 0 0 0 0 0 0 0 0 0 0 0 0 0
0 0 0 0 0 0 0 0 -0 -0 -0 -0 -0 0 0 0 0 0 0 0 0 0 0 0 0 0 0 0 0 0 0 0 0 0 0 0 0 0 0 0 0 0 0 0 0 0 0 0 0
0 0 0 0 0 0 0 0 0 0 -0 -0 -0 -0 0 0 0 0 0 0 0 0 0 0 0 0 0 0 0 0 0 0 0 0 0 0 0 0 0 0 0 0 0 0 0 0 0 0 0
0 0 0 0 0 0 0 0 0 -0 -0 -0 -0 -0 0 0 0 0 0 0 0 0 0 0 0 0 0 0 0 0 0 0 0 0 0 0 0 0 0 0 0 0 0 0 0 0 0 0 0
0 0 0 0 0 0 0 0 0 -0 -0 -0 -0 -0 0 0 0 0 0 0 0 0 0 0 0 0 0 0 0 0 0 0 0 0 0 0 0 0 0 0 0 0 0 0 0 0 0 0 0
Wind_Speed
6 3 3 4 6 3 3 4 2 2 2 2 2 1 2 2 2 2 3 4 5 3 1 3 4 5 6 7 8 8 9 9 10 11 12 13 14 14 15 15 15 15 14 14 14 14 14 14 14
2 2 4 5 4 2 5 3 3 3 3 4 2 1 2 1 1 2 5 7 5 2 1 1 2 4 5 6 7 9 9 9 10 11 12 13 13 14 15 15 15 15 14 14 14 14 14 14 14
1 3 4 4 3 6 3 2 3 3 4 3 3 2 1 2 3 2 5 7 4 3 2 2 2 3 4 5 6 7 9 10 10 10 12 13 13 14 15 15 15 15 14 14 14 14 14 14 14
3 4 4 2 5 4 3 1 2 4 4 4 2 4 3 2 1 3 6 5 4 4 3 2 3 3 4 5 5 6 8 9 10 11 11 13 13 13 14 14 14 14 15 15 14 14 14 14 14
4 4 3 2 6 3 2 3 3 2 3 3 3 3 4 2 2 4 6 6 4 4 3 3 4 4 4 4 6 6 7 8 10 11 11 11 13 13 13 13 13 14 15 15 15 15 15 14 14
4 4 2 4 5 3 2 3 2 2 3 4 3 3 4 2 5 7 7 6 4 3 3 2 4 4 4 4 5 5 6 7 8 10 11 11 11 13 14 14 14 14 16 16 16 16 15 15 14
4 3 3 4 3 3 2 2 1 2 4 3 2 3 4 4 5 7 7 6 5 4 3 3 3 3 4 4 4 5 6 7 7 8 9 10 11 11 14 15 15 15 15 16 17 16 16 15 14
4 3 1 3 4 4 2 3 1 1 5 4 1 2 5 6 8 7 6 5 4 4 3 3 3 3 3 3 5 5 6 7 7 8 8 8 9 10 12 13 14 15 15 16 17 17 16 15 15
3 3 4 5 4 3 2 3 4 3 4 4 3 4 5 7 8 7 6 5 4 5 4 3 3 3 3 3 4 5 5 6 7 6 7 7 5 6 7 9 13 15 16 16 17 17 16 15 13
3 3 6 3 2 2 3 4 5 5 6 6 6 6 6 6 6 7 7 8 7 6 5 3 3 4 3 3 2 3 3 4 4 4 5 4 4 4 5 8 12 14 15 16 16 17 15 10 6
2 4 3 3 2 2 4 5 3 4 8 7 8 9 8 7 7 7 7 8 8 7 6 5 4 4 3 3 2 2 2 2 3 4 4 4 3 3 4 4 6 8 10 8 9 9 6 6 5
0 3 3 4 2 3 4 5 5 7 11 8 8 8 8 9 9 9 9 9 7 7 7 5 4 3 4 3 3 2 2 3 3 4 4 4 3 4 4 4 4 5 5 6 5 4 6 7 7
1 3 4 5 7 7 7 8 7 11 13 10 9 8 9 10 9 8 8 8 7 7 7 7 5 4 4 3 3 3 3 3 4 4 4 5 5 5 5 4 4 5 5 6 6 6 7 8 8
2 4 7 7 7 5 6 8 6 12 7 7 8 9 10 9 9 8 8 8 7 7 7 7 5 4 4 4 3 3 3 3 3 4 5 6 5 6 6 5 5 5 6 6 7 8 7 7 7
2 5 7 5 3 3 3 9 9 10 5 8 10 10 11 10 9 9 9 8 7 7 6 6 6 4 4 4 5 4 4 4 4 4 5 6 5 6 6 6 6 6 6 7 6 7 5 6 7
2 3 5 5 3 2 1 10 10 5 5 10 11 10 10 10 9 9 8 7 6 5 6 6 6 5 5 5 5 4 4 4 4 4 4 6 6 6 6 6 6 6 6 7 7 7 6 6 7
2 3 5 8 3 2 2 12 12 6 7 11 11 10 10 10 9 7 7 7 6 5 5 5 6 5 5 5 4 4 4 5 5 4 5 5 7 7 6 6 6 7 6 6 8 7 7 7 7
3 4 6 7 5 4 8 16 18 10 8 11 11 9 8 9 10 8 7 6 5 5 5 4 5 5 5 4 3 3 4 4 4 5 5 6 6 8 7 6 7 7 6 6 7 8 7 6 7
3 5 9 10 6 6 11 17 19 13 8 10 9 8 8 9 8 6 5 5 4 4 4 4 4 5 3 3 3 3 3 4 4 5 7 7 7 8 7 6 7 8 8 8 9 7 8 6 6
5 7 9 9 3 6 11 17 15 10 8 8 8 8 8 8 7 7 5 4 4 4 4 5 5 5 4 4 4 4 4 4 5 5 6 7 7 8 8 8 8 8 7 9 9 8 7 5 7
6 7 7 8 8 5 7 11 6 5 4 5 6 6 6 7 8 8 6 5 4 5 5 5 6 6 5 5 3 3 3 3 4 4 5 6 7 8 8 10 9 9 9 9 10 11 10 8 6
7 6 7 7 5 6 3 9 8 5 6 6 6 5 6 7 7 7 6 6 6 6 5 6 6 5 5 5 4 5 5 6 6 5 5 6 7 8 8 9 10 10 9 9 10 10 9 11 9
6 3 3 4 3 5 2 5 12 4 5 6 6 6 7 7 6 7 7 7 7 6 5 5 6 6 6 5 5 6 6 6 5 5 6 7 7 7 9 9 9 9 8 9 10 10 11 9 9
1 3 2 2 2 4 4 5 11 5 5 5 6 6 7 7 7 7 7 6 6 6 5 5 6 7 6 6 6 7 8 7 7 7 7 6 5 6 9 9 9 10 9 10 10 10 12 10 9
3 4 5 7 4 6 2 5 12 8 6 6 8 8 8 7 7 7 8 7 7 7 6 6 6 7 7 7 7 7 8 8 8 8 8 7 6 6 9 9 9 9 9 10 10 10 11 12 12
2 5 4 4 6 7 4 9 11 7 6 6 6 7 7 7 7 7 8 8 8 8 7 7 7 7 7 8 8 7 7 6 6 8 7 8 7 8 9 9 9 10 10 11 10 9 10 11 11
3 3 3 3 3 6 8 9 12 6 7 6 6 6 7 8 8 8 8 8 8 8 8 7 8 8 8 8 8 7 7 7 8 8 7 7 7 6 9 9 9 9 10 11 11 8 10 11 11
3 5 4 2 3 7 8 7 7 6 7 6 6 7 8 8 9 9 8 8 8 8 8 7 7 8 8 8 7 7 7 8 8 8 9 7 7 7 7 9 9 9 10 11 10 9 9 11 10
4 3 4 3 4 4 8 10 6 7 7 7 8 8 8 9 10 9 9 8 8 8 7 7 7 8 8 7 7 7 8 8 8 8 8 7 7 8 8 9 9 9 10 10 10 10 10 12 11
6 7 8 5 6 5 6 13 5 6 6 6 8 9 9 9 9 9 8 8 7 7 7 7 7 7 7 6 7 7 7 7 7 8 7 6 7 7 8 9 9 9 9 10 11 11 11 12 12
Wind_Direction
353 7 60 56 57 56 234 238 228 274 264 271 266 207 173 178 167 190 301 339 335 338 251 219 205 189 188 187 181 174 171 172 170 167 165 163 162 160 159 157 156 154 151 147 143 139 136 132 130
342 32 57 64 99 192 249 228 223 235 277 317 338 20 33 332 343 357 340 325 332 340 316 266 228 199 194 194 193 185 179 178 178 176 174 171 170 167 165 163 161 158 153 150 146 144 140 136 135
17 53 83 87 155 195 216 210 226 278 308 353 350 6 35 318 351 346 314 314 341 352 332 303 287 217 202 198 201 197 190 187 185 184 181 178 176 175 171 167 164 161 157 153 150 147 142 140 139
66 50 59 99 222 226 225 272 305 321 341 10 17 337 329 328 356 308 317 336 358 345 331 308 297 249 226 213 209 206 204 199 195 191 186 185 182 180 177 173 167 164 161 157 155 149 146 145 144
59 76 80 241 243 252 260 292 313 338 335 348 9 326 297 294 322 331 344 352 351 332 327 309 306 273 249 237 224 215 212 208 203 199 194 190 189 185 180 176 172 169 166 163 160 155 153 152 150
61 72 129 232 247 267 282 306 331 339 323 330 349 308 267 285 351 343 344 340 333 318 317 309 305 293 268 248 243 229 222 215 208 205 202 198 194 191 187 181 176 174 171 167 164 161 159 157 157
102 113 191 229 260 275 295 335 53 320 313 300 299 282 277 307 336 340 334 329 330 325 320 313 299 287 288 271 253 245 233 229 218 209 203 201 201 197 194 185 178 177 175 171 168 166 163 162 161
112 106 192 237 243 256 325 348 331 287 273 281 251 245 274 297 321 332 327 323 321 317 312 306 305 293 272 258 259 258 252 240 233 221 210 204 204 201 196 189 183 181 178 175 172 169 168 165 162
84 90 223 228 225 253 330 328 307 290 268 280 252 239 261 301 321 328 326 320 312 309 301 291 292 290 283 274 268 255 251 246 236 225 214 206 203 199 194 194 187 184 180 179 176 172 170 164 162
91 180 230 233 230 274 304 295 299 307 297 278 277 275 287 299 310 311 307 304 299 293 290 278 275 280 277 276 273 254 239 234 231 216 208 200 196 196 190 190 191 187 181 180 179 175 168 156 152
128 206 249 277 277 291 292 286 276 268 272 253 267 288 302 300 303 298 291 283 281 277 275 278 268 271 270 263 254 252 247 224 225 220 209 200 192 189 183 182 189 187 180 176 175 174 162 152 148
261 258 257 277 303 304 281 283 275 238 248 260 267 281 288 288 289 287 286 286 287 289 284 275 264 262 263 259 250 238 244 231 216 217 209 193 191 193 185 185 187 185 177 170 166 167 160 155 153
259 283 284 278 283 268 264 259 261 258 261 276 282 282 279 276 278 276 277 281 287 289 290 283 267 257 255 253 247 243 232 236 221 212 211 202 194 198 192 187 187 190 178 173 169 168 167 162 160
287 292 293 286 277 267 262 268 252 263 270 281 282 281 282 275 272 276 282 283 284 284 290 285 273 259 252 251 244 239 227 229 232 216 217 210 204 198 197 190 188 191 183 177 175 173 173 171 166
328 319 311 284 274 274 294 287 242 255 286 287 284 283 286 279 272 268 267 270 274 278 280 285 275 265 258 256 248 239 235 221 222 223 221 214 210 202 199 193 191 191 184 175 171 170 169 171 168
15 354 313 298 305 288 309 279 264 269 284 283 284 286 287 282 275 269 268 266 268 271 274 281 289 279 266 259 256 242 234 230 222 216 216 220 211 208 202 199 193 186 182 179 175 173 172 176 173
18 316 285 298 288 287 252 269 276 287 279 279 284 285 287 290 291 282 276 270 268 262 266 275 285 277 271 267 259 252 236 232 225 216 214 221 220 208 206 207 195 182 182 186 183 177 173 175 176
267 270 274 276 282 282 267 268 281 287 273 275 282 285 287 288 287 287 284 283 277 267 260 263 281 279 274 274 267 262 245 236 228 218 220 222 223 215 207 208 196 182 182 188 186 178 174 175 169
243 257 272 270 271 280 267 275 284 287 278 277 280 280 281 280 279 281 283 291 297 284 272 269 280 276 274 271 261 257 252 244 236 225 223 221 224 220 208 211 198 188 190 191 187 179 174 171 154
248 270 276 284 282 280 284 282 278 272 258 255 266 279 282 286 295 296 294 293 293 282 277 275 275 263 260 257 249 243 247 245 238 235 226 223 222 222 216 209 201 194 193 190 189 176 169 172 169
253 244 261 281 312 300 309 298 287 284 277 279 276 277 286 279 278 287 293 287 289 287 281 278 275 268 264 268 271 273 268 260 249 242 231 223 222 222 217 213 204 197 194 195 192 185 176 176 184
267 244 251 281 316 304 12 304 292 296 308 295 293 299 298 295 284 284 289 288 279 276 283 277 276 277 271 266 265 257 253 252 248 240 237 233 224 222 215 211 207 200 198 198 195 195 185 175 181
241 285 273 281 255 289 255 245 284 308 295 286 290 297 301 304 297 288 280 276 277 276 279 284 286 280 277 268 261 260 255 251 253 246 241 238 231 224 220 211 206 200 198 199 198 197 190 184 183
261 352 358 39 65 284 242 205 280 257 245 276 291 298 303 308 308 301 287 285 283 282 281 280 282 283 279 275 268 259 261 260 259 255 241 237 233 227 221 213 207 202 197 197 198 200 195 191 187
67 49 358 349 350 260 240 235 255 252 243 252 274 291 299 301 304 309 302 298 294 290 283 280 280 282 285 279 273 259 257 252 248 251 240 238 234 234 220 210 207 203 201 200 198 198 199 194 189
177 137 163 254 268 289 285 246 256 258 265 264 271 279 294 300 303 305 301 293 287 284 283 281 280 283 286 280 276 265 258 252 250 249 245 238 229 228 216 210 208 207 203 201 198 198 201 195 193
148 193 177 170 274 278 270 278 294 278 286 285 288 291 290 296 303 302 300 291 286 282 278 274 274 280 283 280 276 274 264 258 258 256 247 241 232 226 217 209 208 208 207 202 195 200 204 194 192
169 152 111 145 267 277 281 266 260 285 284 291 297 293 289 297 304 303 300 294 286 279 275 275 272 272 278 282 275 276 273 267 263 255 246 241 233 223 217 211 208 207 206 201 198 199 203 195 193
149 158 165 178 204 230 277 269 228 239 260 275 281 284 290 296 298 299 297 293 291 289 285 283 283 280 281 281 283 281 277 274 273 260 245 240 235 223 214 214 208 206 204 198 197 201 198 195 192
188 188 167 191 236 224 257 273 249 238 259 268 280 290 296 294 295 295 292 294 298 297 293 292 289 284 280 279 282 282 280 277 275 270 256 246 243 229 216 210 208 206 204 200 197 200 198 195 192